Location: Absher
(46.5583°N, 107.9840°W)
Time: 18:49:30
(UTC+00:00)

Envisat - Pass Details

Date: 05 December 2022
Orbit: 763 x 765 km, 98.2° (Epoch: 06 February)

Event Time Altitude Azimuth Distance (km) Brightness Sun altitude
Rises 11:25:50 0° 14° (NNE) 3,245 6.4 -32.5°
Reaches altitude 10° 11:28:09 10° 16° (NNE) 2,314 5.6 -32.1°
Enters shadow 11:29:23 18° 18° (NNE) 1,835 5.1 -31.9°
